Simultaneous Nadir Overpasses (SNOs) Predictions

Prediction of SNOs between FY3D and TERRA Satellite Orbit:

Table of predicted SNOs for the next 14.0 days since TLE Epoch: 4/27/2024
Index Date (FY3D) Time (FY3D) Lat,Lon (FY3D) SZA (FY3D ) Date (TERRA) Time (TERRA) Lat,Lon (TERRA) SZA (TERRA ) Distance(km) Time Diff (sec)
1 04/28/2024 00:34:08 -75.40, -8.37 118.94 04/28/2024 00:34:18 -75.38, -8.43 118.95 2.16 10
2 04/28/2024 01:24:53 75.32, 159.17 60.98 04/28/2024 01:23:40 75.33, 159.10 60.99 2.51 73
3 04/30/2024 11:47:06 -75.44,-176.70 119.65 04/30/2024 11:47:47 -75.44,-176.68 119.65 0.66 41
4 04/30/2024 12:37:51 75.37, -9.17 60.27 04/30/2024 12:37:09 75.39, -9.18 60.28 1.91 42
5 05/02/2024 23:00:05 -75.50, 14.92 120.33 05/02/2024 23:01:16 -75.49, 15.04 120.34 3.50 71
6 05/02/2024 23:50:50 75.43,-177.57 59.60 05/02/2024 23:50:38 75.43,-177.47 59.59 2.72 12
7 05/05/2024 11:03:48 75.47, 14.13 58.92 05/05/2024 11:04:06 75.46, 14.21 58.91 2.39 18
8 05/05/2024 11:54:31 -75.40,-178.33 121.16 05/05/2024 11:53:29 -75.40,-178.28 121.16 1.38 62
9 05/07/2024 22:16:45 75.47,-154.07 58.25 05/07/2024 22:17:33 75.48,-154.14 58.25 1.91 48
10 05/07/2024 23:07:29 -75.44, 13.34 121.79 05/07/2024 23:06:56 -75.43, 13.38 121.81 2.18 33
11 05/10/2024 09:29:46 75.68, 37.07 57.80 05/10/2024 09:30:57 75.59, 37.77 57.71 22.03 71
12 05/10/2024 10:20:26 -75.46,-154.91 122.43 05/10/2024 10:20:22 -75.44,-154.97 122.45 2.60 4



Historial Predications of SNOs between FY3D and TERRA
